Penn Yan, NY

1:10 AM EST on January 17, 2017 (GMT -0500)
Penn Yan

Weather History for KPEO - October, 2012

Change the Weather History Date:

Sunday, October 14, 2012

  Actual Average (KITH) Record (KITH)
Temperature  
Mean Temperature 62 °F -  
Max Temperature 75 °F 60 °F 84 °F (1930)
Min Temperature 50 °F 39 °F 22 °F (1993)
Degree Days  
Heating Degree Days 2    
Growing Degree Days 12 (Base 50)    
Moisture  
Dew Point 50 °F    
Average Humidity 63    
Maximum Humidity 75    
Minimum Humidity 50    
Precipitation  
Precipitation 0.03 in - - ()
Sea Level Pressure  
Sea Level Pressure 29.88 in    
Wind  
Wind Speed 15 mph (SSW)    
Max Wind Speed 22 mph    
Max Gust Speed 30 mph    
Visibility 10 miles    
Events Rain    
Averages and records for this station are not official NWS values.
T = Trace of Precipitation, MM = Missing Value Source: NWS Daily Summary

Daily Weather History Graph

Daily Weather History Graph

Search for Another Location

Airport or City:

Trip Planner

Search our weather history database for the weather conditions in past years. The results will help you decide how hot, cold, wet, or windy it might be!

Date:

Astronomy

Oct. 14, 2012 Rise Set
Actual Time 7:20 AM EDT 6:26 PM EDT
Civil Twilight 6:52 AM EDT 6:55 PM EDT
Nautical Twilight 6:19 AM EDT 7:27 PM EDT
Astronomical Twilight 5:46 AM EDT 8:00 PM EDT
Moon 6:16 AM EDT (10/14) 5:45 PM EDT (10/14)
Length of Visible Light 12h 02m
Length of Day
11h 06m
Waning Crescent, 1% of the Moon is Illuminated
Oct 14
Waning Crescent
Oct 15
New
Oct 21
First Quarter
Oct 29
Full
Nov 6
Last Quarter

Hourly Weather History & Observations

Time (EDT) Temp. Dew Point Humidity Pressure Visibility Wind Dir Wind Speed Gust Speed Precip Events Conditions
1:53 AM 50.0 °F 39.0 °F 66% 30.00 in 8.0 mi South 18.4 mph 29.9 mph 0.02 in Rain Light Rain
2:53 AM 50.0 °F 41.0 °F 71% 29.99 in 10.0 mi SSW 13.8 mph 25.3 mph 0.00 in Rain Light Rain
3:53 AM 52.0 °F 43.0 °F 71% 29.97 in 10.0 mi SSW 21.9 mph 27.6 mph 0.00 in   Mostly Cloudy
4:53 AM 53.1 °F 44.1 °F 71% 29.96 in 10.0 mi SSW 18.4 mph 27.6 mph N/A   Mostly Cloudy
5:53 AM 54.0 °F 45.0 °F 72% 29.96 in 10.0 mi SSW 20.7 mph 29.9 mph N/A   Overcast
6:53 AM 55.0 °F 46.9 °F 74% 29.96 in 10.0 mi SSW 17.3 mph 27.6 mph N/A   Overcast
7:53 AM 55.9 °F 48.0 °F 75% 29.97 in 10.0 mi SSW 8.1 mph 21.9 mph N/A   Mostly Cloudy
8:53 AM 57.0 °F 48.9 °F 74% 29.99 in 10.0 mi SSW 15.0 mph - 0.01 in   Overcast
9:53 AM 59.0 °F 50.0 °F 72% 29.98 in 10.0 mi SSW 11.5 mph - N/A   Scattered Clouds
10:53 AM 62.1 °F 51.1 °F 67% 29.97 in 10.0 mi SSW 13.8 mph 20.7 mph N/A   Clear
11:53 AM 64.0 °F 52.0 °F 65% 29.96 in 10.0 mi South 6.9 mph - N/A   Clear
12:53 PM 69.1 °F 55.0 °F 61% 29.93 in 10.0 mi SSW 11.5 mph 19.6 mph N/A   Clear
1:53 PM 73.9 °F 57.0 °F 55% 29.88 in 10.0 mi South 11.5 mph - N/A   Clear
2:53 PM 73.0 °F 55.0 °F 53% 29.85 in 10.0 mi South 13.8 mph 20.7 mph N/A   Clear
3:53 PM 75.0 °F 55.0 °F 50% 29.81 in 10.0 mi SSW 15.0 mph 24.2 mph N/A   Clear
4:53 PM 73.9 °F 55.0 °F 52% 29.79 in 10.0 mi South 13.8 mph 20.7 mph N/A   Clear
5:53 PM 71.1 °F 53.1 °F 53% 29.77 in 10.0 mi South 17.3 mph 24.2 mph N/A   Clear
6:53 PM 66.9 °F 51.1 °F 57% 29.77 in 10.0 mi South 13.8 mph - N/A   Clear
7:53 PM 66.9 °F 50.0 °F 54% 29.78 in 10.0 mi South 15.0 mph 23.0 mph N/A   Clear
8:53 PM 66.0 °F 50.0 °F 56% 29.77 in 10.0 mi South 15.0 mph 25.3 mph N/A   Clear
9:53 PM 64.9 °F 50.0 °F 58% 29.76 in 10.0 mi SSW 11.5 mph 24.2 mph N/A   Partly Cloudy
10:53 PM 64.0 °F 50.0 °F 60% 29.74 in 10.0 mi South 10.4 mph 18.4 mph N/A   Clear
11:53 PM 64.0 °F 50.0 °F 60% 29.71 in 10.0 mi SSW 16.1 mph 27.6 mph N/A   Mostly Cloudy